TimeCST,TemperatureF,Dew PointF,Humidity,Sea Level PressureIn,VisibilityMPH,Wind Direction,Wind SpeedMPH,Gust SpeedMPH,PrecipitationIn,Events,Conditions,WindDirDegrees,DateUTC
12:00 AM,68,56,56,29.85,12,ESE,11.5,,,,Scattered Clouds,120,2012-02-17 06:00:00
12:00 AM,68.0,55.4,64,30.02,6.2,ESE,11.5,23.0,N/A,,Partly Cloudy,120,2012-02-17 06:00:00
1:00 AM,68.0,55.4,64,30.00,6.2,East,13.8,-,N/A,,Partly Cloudy,90,2012-02-17 07:00:00
2:00 AM,68.0,55.4,64,29.98,6.2,East,13.8,-,N/A,,Partly Cloudy,100,2012-02-17 08:00:00
3:00 AM,66,55,60,29.83,12,ENE,10.4,,,,Scattered Clouds,60,2012-02-17 09:00:00
3:00 AM,66.2,55.4,68,29.98,6.2,ENE,10.4,-,N/A,,Partly Cloudy,60,2012-02-17 09:00:00
4:00 AM,64.4,55.4,73,29.99,6.2,ENE,6.9,-,N/A,,Partly Cloudy,60,2012-02-17 10:00:00
5:00 AM,64.4,53.6,68,30.01,6.2,WSW,4.6,-,N/A,,Partly Cloudy,240,2012-02-17 11:00:00
6:00 AM,65,57,68,29.88,12,ENE,11.5,,,,Scattered Clouds,70,2012-02-17 12:00:00
6:00 AM,64.4,57.2,77,30.02,6.2,ENE,11.5,-,N/A,,Scattered Clouds,70,2012-02-17 12:00:00
7:00 AM,69.8,55.4,60,30.05,-9999.0,NNE,6.9,-,N/A,,Clear,30,2012-02-17 13:00:00
8:00 AM,77.0,55.4,47,30.06,-9999.0,East,12.7,-,N/A,,Clear,100,2012-02-17 14:00:00
9:00 AM,78,54,32,29.89,12,East,12.7,,,,,100,2012-02-17 15:00:00
9:00 AM,77.0,53.6,44,30.06,-9999.0,East,12.7,-,N/A,,Clear,100,2012-02-17 15:00:00
10:00 AM,80.6,53.6,39,30.06,-9999.0,East,10.4,-,N/A,,Clear,90,2012-02-17 16:00:00
11:00 AM,82.4,53.6,37,30.04,-9999.0,East,8.1,-,N/A,,Clear,90,2012-02-17 17:00:00
12:00 PM,83,54,26,29.89,12,East,10.4,,,,Scattered Clouds,90,2012-02-17 18:00:00
12:00 PM,84.2,53.6,35,30.02,6.2,East,10.4,-,N/A,,Partly Cloudy,90,2012-02-17 18:00:00
1:00 PM,84.2,53.6,35,30.00,6.2,ESE,8.1,-,N/A,,Partly Cloudy,120,2012-02-17 19:00:00
2:00 PM,84.2,53.6,35,-9999,6.2,ESE,8.1,-,N/A,,Partly Cloudy,110,2012-02-17 20:00:00
3:00 PM,84.2,51.8,33,29.95,6.2,ESE,11.5,-,N/A,,Scattered Clouds,110,2012-02-17 21:00:00
4:00 PM,82.4,55.4,39,29.94,6.2,ESE,9.2,-,N/A,,Scattered Clouds,110,2012-02-17 22:00:00
5:00 PM,77.0,57.2,50,29.96,6.2,ENE,13.8,-,N/A,,Scattered Clouds,70,2012-02-17 23:00:00
6:00 PM,71.6,59.0,64,29.97,6.2,East,11.5,-,N/A,,Scattered Clouds,100,2012-02-18 00:00:00
7:00 PM,71.6,59.0,64,29.99,6.2,East,11.5,-,N/A,,Scattered Clouds,100,2012-02-18 01:00:00
8:00 PM,69.8,59.0,68,30.01,6.2,East,11.5,-,N/A,,Partly Cloudy,100,2012-02-18 02:00:00
9:00 PM,69,56,54,29.90,12,East,5.8,,,,Scattered Clouds,80,2012-02-18 03:00:00
9:00 PM,68.0,55.4,64,30.03,6.2,East,5.8,-,N/A,,Partly Cloudy,80,2012-02-18 03:00:00
10:00 PM,68.0,51.8,56,30.04,-9999.0,ESE,5.8,-,N/A,,Clear,110,2012-02-18 04:00:00
11:00 PM,68.0,50.0,52,30.02,-9999.0,ESE,8.1,-,N/A,,Clear,110,2012-02-18 05:00:00